Location: Casper
(42.8670°N, 106.3130°W)
Time: 19:52:02
(UTC-07:00)

Daily predictions for brighter satellites

Satellite Brightness Start Highest point End
(mag) Time Altitude Azimuth Time Altitude Azimuth Time Altitude Azimuth
CSL-04 Rocket 4.1 16:53:58 10° S 16:59:25 74° WSW 17:04:58 10° NNW
BREEZE-M DEB (TANK) 1.4 16:59:11 10° WSW 17:01:43 78° NNW 17:03:54 10° ENE
CSL-04 Debris 4.3 16:56:21 10° SSE 17:01:45 82° WSW 17:07:11 10° NNW
Cosmos 1536 2.9 16:59:23 10° N 17:03:29 88° W 17:07:33 10° S
YAOGAN 1 3.0 17:01:56 10° SE 17:05:58 39° ENE 17:10:01 10° N
SPOT 3 Rocket 3.7 17:01:25 10° SE 17:06:25 50° ENE 17:11:26 10° N
Cosmos 1812 3.8 17:03:38 10° SE 17:06:48 25° E 17:09:59 10° NE
Cosmos 372 Rocket 4.1 17:02:19 10° SSW 17:07:35 88° WNW 17:12:52 10° NNE
CZ-3A R/B 3.2 17:04:16 10° WSW 17:08:21 76° NNW 17:29:09 10° NE
COSMOS 2487 4.4 17:07:42 10° NNE 17:09:14 12° ENE 17:10:46 10° E
IRS-1A Rocket 4.4 17:05:25 10° SSE 17:10:55 82° WSW 17:16:29 10° NNW
USA 234 3.3 17:04:52 10° NE 17:11:27 87° SE 17:18:00 10° SW
ISS -3.1 17:08:20 10° WSW 17:11:37 68° NNW 17:14:53 10° NE
Cosmos 1844 Rocket 2.7 17:06:59 10° SSW 17:12:32 71° ESE 17:18:09 10° NNE
Cosmos 1378 Rocket 4.2 17:08:20 10° SSW 17:12:34 57° W 17:16:50 10° N
AQUARIUS 4.2 17:11:25 10° SSE 17:15:48 56° ENE 17:20:13 10° N
BREEZE M DEB (TANK) 3.3 17:13:22 10° NW 17:16:00 33° NNE 17:21:52 10° E
USA 32 4.1 17:13:41 10° SSE 17:18:47 58° E 17:23:55 10° NNE
Cosmos 1346 Rocket 4.4 17:16:25 10° SE 17:18:52 16° E 17:20:57 11° NE
CZ-2C R/B 4.3 17:15:08 10° N 17:19:31 59° WNW 17:23:55 10° SSW
Meteor 2-19 Rocket 4.4 17:15:43 10° N 17:21:45 67° E 17:27:46 10° SSE
SL-8 Rocket 3.9 17:17:43 10° N 17:23:55 77° E 17:30:04 10° SSE
Cosmos 1455 Rocket 3.3 17:21:11 10° N 17:25:28 49° ENE 17:29:45 10° SSE
NOSS 3-3 (A) 4.5 17:19:55 10° S 17:25:39 42° ESE 17:31:29 11° NE
Cosmos 494 Rocket 4.1 17:21:10 10° NNW 17:26:20 56° ENE 17:31:29 10° SE
IDEFIX/ARIANE 42P 2.5 17:21:53 10° SSE 17:27:03 73° ENE 17:32:14 10° N
CORIOLIS 4.1 17:22:52 10° SSE 17:28:14 68° ENE 17:33:37 10° N
Cosmos 1844 3.6 17:23:59 10° SSW 17:29:31 73° ESE 17:35:04 10° NNE
ATLAS 2AS CENTAUR R/B 3.0 17:25:21 10° NW 17:33:32 85° NE 17:41:08 10° SE
Abrixas 3.6 17:31:10 10° NW 17:33:48 28° N 17:35:12 19° NE
Cosmos 2366 rocket 4.0 17:28:50 10° N 17:35:12 70° E 17:41:28 10° SSE
OTV 4 3.5 17:36:41 10° SW 17:38:03 13° SSW 17:39:27 10° S
Cosmos 1959 Rocket 4.5 17:32:39 10° N 17:38:51 84° E 17:45:07 10° S
CZ-4 R/B 2.0 17:35:09 10° S 17:39:17 61° W 17:43:25 10° NNW
Cosmos 2218 Rocket 4.0 17:33:38 10° N 17:39:58 85° E 17:46:11 10° S
MSX 3.8 17:36:18 10° SSE 17:42:00 69° ENE 17:47:44 10° N
Thor Agena Rocket 3.6 17:37:05 10° NNE 17:42:19 87° WNW 17:47:35 10° SSW
SMAP 3.2 17:37:57 10° S 17:42:36 79° WSW 17:47:16 10° NNW
SL-24 DEB 4.5 17:38:12 10° NNE 17:42:49 49° E 17:47:22 10° SSE
SJ-12 4.4 17:40:44 10° S 17:44:47 63° W 17:48:53 10° NNW
Cosmos 2278 Rocket 2.2 17:40:27 10° S 17:45:59 61° ESE 17:51:13 12° NNE
MONITOR-E 4.3 17:43:07 10° SSE 17:46:14 54° ENE 17:49:23 10° N
Cosmos 1975 2.9 17:42:31 10° N 17:46:32 53° E 17:50:29 10° SSE
Cosmos 1238 Rocket 2.0 17:43:51 10° S 17:46:47 89° NW 17:49:50 10° N
CZ-2C R/B 2.9 17:44:50 10° S 17:49:46 68° WSW 17:54:54 10° NNW
SL-27 R/B 3.8 17:49:41 10° NNW 17:53:13 44° WSW 17:56:41 10° S
Cosmos 2251 Rocket 3.8 17:48:07 10° NNW 17:53:29 75° WSW 17:58:46 10° SSE
Timation 2 Rocket 4.4 17:47:39 10° NNW 17:54:11 46° ENE 18:00:46 10° SE
Meteor 1-12 Rocket 4.2 17:48:36 10° N 17:54:25 84° E 18:00:18 10° S
OPS 8737 4.3 17:51:57 10° SW 17:55:15 74° NW 17:56:58 25° NNE
Genesis I 3.4 17:52:17 10° NNW 17:56:06 46° NE 17:58:26 21° ESE
COSMOS 2441 4.3 17:56:15 10° SSE 18:01:06 85° ENE 18:06:01 10° NNW
Cosmos 1484 Rocket 2.5 18:01:09 10° SSE 18:04:54 76° ENE 18:08:38 10° N
SL-8 R/B 3.6 18:01:53 10° WSW 18:06:40 79° SSE 18:08:49 33° ENE
NOAA 12 4.4 18:02:23 10° SE 18:07:19 42° ENE 18:12:15 10° N
Cosmos 1821 Rocket 4.3 18:04:13 10° N 18:09:56 40° ENE 18:15:36 10° SE
Cosmos 2082 Rocket 2.4 18:05:04 10° NNW 18:10:32 47° ENE 18:15:49 11° SE
Cosmos 1833 Rocket 3.0 18:06:39 10° NNW 18:12:00 42° ENE 18:14:56 24° ESE
Meteor 1-13 Rocket 4.3 18:08:54 10° S 18:14:24 56° E 18:19:43 12° NNE
COSMO-SKYMED 1 2.4 18:11:18 15° NNE 18:14:57 79° ESE 18:19:17 10° S
METEOR-M 4.4 18:10:42 10° SE 18:15:41 43° ENE 18:20:43 10° N
Cosmos 1500 3.1 18:12:02 10° N 18:15:52 85° W 18:19:42 10° S
Meteor 2-21 4.3 18:10:02 10° N 18:16:16 80° E 18:22:24 10° S
Meteor 1-28 Rocket 3.3 18:20:30 51° ESE 18:20:30 51° ESE 18:24:05 10° S
NOSS 2-1 (D) 4.4 18:18:18 10° S 18:20:55 28° SE 18:20:55 28° SE
NOSS 2-1 (C) 4.5 18:19:00 10° S 18:21:34 28° SE 18:21:34 28° SE
CZ-3B DEB 2.8 18:20:56 10° WSW 18:25:05 64° NNW 18:30:57 24° NE
BREEZE-M R/B 4.0 18:18:18 10° WSW 18:28:33 84° NNW 18:30:32 41° NE
Tiangong 1 2.6 18:26:57 10° SW 18:28:54 27° S 18:28:54 27° S
SL-24 R/B - RUBIN 2 4.4 18:26:11 10° SSW 18:32:29 76° ESE 18:35:38 34° NE
Nadezhda 3 Rocket 3.9 18:27:31 10° S 18:33:43 89° E 18:40:03 10° N
Timation 1 Rocket 4.3 18:31:08 10° S 18:36:59 62° ESE 18:38:38 45° NE
Meteor 2-14 Rocket 4.3 18:32:01 10° N 18:38:13 86° E 18:44:21 10° S
GEOS 3 Rocket 3.5 18:34:43 16° SE 18:38:53 83° SW 18:44:03 10° NW
NOSS 2-1 (E) 4.5 18:37:13 10° SSW 18:39:32 31° SSE 18:39:32 31° SSE
Meteor 2-4 Rocket 3.7 18:35:43 10° S 18:40:40 52° ESE 18:40:40 52° ESE
COSMOS 2487 3.4 18:41:35 10° NNW 18:45:04 47° WSW 18:47:27 18° S
Cosmos 1025 Rocket 4.2 18:42:03 10° S 18:44:25 31° SSE 18:44:25 31° SSE
ISS -0.9 18:45:58 10° WNW 18:47:34 18° NW 18:47:34 18° NW
Cosmos 921 Rocket 3.1 18:47:38 10° SSW 18:51:27 71° SW 18:51:27 71° SW
USA 234 4.2 18:51:12 26° NNE 18:54:03 38° NNW 18:59:58 10° W
Cosmos 1346 Rocket 4.3 18:51:23 10° SW 18:54:58 34° WNW 18:56:33 24° NNW
Cosmos 1371 Rocket 4.2 18:56:11 10° S 19:00:34 58° SSE 19:00:34 58° SSE
NOSS 3-4 (A) 3.7 19:02:17 10° NNW 19:09:15 66° NE 19:09:30 65° ENE
NOSS 3-4 (C) 3.7 19:02:23 10° NNW 19:09:21 65° NE 19:09:33 65° ENE
FALCON 9 R/B 3.5 18:55:39 10° WSW 19:13:52 50° S 19:15:38 43° SSE
Cosmos 2297 4.2 19:10:19 10° SW 19:15:51 54° WNW 19:17:03 46° NNW
Cosmos 1934 Rocket 4.3 19:23:50 10° NNW 19:29:56 62° W 19:36:05 10° S
Cosmos 2278 Rocket 4.2 19:26:04 10° WSW 19:30:30 23° NW 19:33:06 17° NNW
ATLAS 3B CENTAUR R/B 4.3 19:41:43 10° WSW 19:52:18 27° SSW 19:53:30 26° S
Cosmos 2082 Rocket 4.1 19:49:43 10° NW 19:54:20 26° WSW 19:57:59 14° SSW
Cosmos 1833 Rocket 4.4 19:50:55 10° NW 19:55:44 30° WSW 19:56:48 28° WSW
